OK1FCB-1 Weather Reports


time (UTC)temp
C
wind
direction
speed
KPH
gust
KPH
rain 1hr
cm
rain 24hr
cm
rain mn
cm
humidity
%
barometer
mb
20260905181257 17 0.0 0.0 0.00 0.00 0.00 50 1024.5
20260905174303 18 0.0 0.0 0.00 0.00 0.00 47 1024.0
20260905161332 26 0.0 0.0 0.00 0.00 0.00 37 1023.2
20260905152840 26 0.0 0.0 0.00 0.00 0.00 37 1023.0
20260905145837 25 0.0 0.0 0.00 0.00 0.00 38 1023.0
20260905144352 28 0.0 0.0 0.00 0.00 0.00 34 1022.8
20260905141356 27 0.0 0.0 0.00 0.00 0.00 32 1022.7
20260905134400 27 0.0 0.0 0.00 0.00 0.00 35 1022.6
20260905121410 25 0.0 0.0 0.00 0.00 0.00 39 1023.2
20260905114412 24 0.0 0.0 0.00 0.00 0.00 40 1023.4
20260905111416 23 0.0 0.0 0.00 0.00 0.00 41 1023.6
20260905105917 23 0.0 0.0 0.00 0.00 0.00 44 1023.4
20260905102921 23 0.0 0.0 0.00 0.00 0.00 44 1023.5
20260905092928 22 0.0 0.0 0.00 0.00 0.00 53 1023.4
20260905081433 18 0.0 0.0 0.00 0.00 0.00 64 1023.1
20260905075936 19 0.0 0.0 0.00 0.00 0.00 64 1022.8
20260905062946 17 0.0 0.0 0.00 0.00 0.00 71 1022.6
20260905061447 15 0.0 0.0 0.00 0.00 0.00 77 1022.6
20260905055948 14 0.0 0.0 0.00 0.00 0.00 78 1022.6
20260905054450 13 0.0 0.0 0.00 0.00 0.00 79 1022.2
20260905052953 13 0.0 0.0 0.00 0.00 0.00 79 1022.0
20260905051455 13 0.0 0.0 0.00 0.00 0.00 79 1021.8
20260905045958 13 0.0 0.0 0.00 0.00 0.00 80 1021.4
20260905044502 13 0.0 0.0 0.00 0.00 0.00 80 1020.9
20260905041505 14 0.0 0.0 0.00 0.00 0.00 82 1021.5
20260905034510 15 0.0 0.0 0.00 0.00 0.00 80 1021.3
20260905033012 15 0.0 0.0 0.00 0.00 0.00 79 1021.1
20260905031514 15 0.0 0.0 0.00 0.00 0.00 78 1020.5
20260905030017 15 0.0 0.0 0.00 0.00 0.00 78 1020.5
20260905024519 15 0.0 0.0 0.00 0.00 0.00 77 1020.3
20260905023021 15 0.0 0.0 0.00 0.00 0.00 77 1020.2
20260905021523 15 0.0 0.0 0.00 0.00 0.00 75 1020.0
20260905020026 16 0.0 0.0 0.00 0.00 0.00 74 1019.7
20260905013032 16 0.0 0.0 0.00 0.00 0.00 72 1019.6
20260905011534 16 0.0 0.0 0.00 0.00 0.00 72 1019.9
20260905010037 16 0.0 0.0 0.00 0.00 0.00 70 1019.3
20260905004539 16 0.0 0.0 0.00 0.00 0.00 68 1019.2
20260905001545 17 0.0 0.0 0.00 0.00 0.00 66 1019.1
20260904234551 18 0.0 0.0 0.00 0.00 0.00 64 1018.7
20260904224600 18 0.0 0.0 0.00 0.00 0.00 64 1017.0
20260904223102 18 0.0 0.0 0.00 0.00 0.00 65 1016.9
20260904221604 18 0.0 0.0 0.00 0.00 0.00 66 1016.7
20260904220105 18 0.0 0.0 0.00 0.00 0.00 66 1015.9
20260904213111 19 0.0 0.0 0.00 0.00 0.00 65 1015.2
20260904201626 21 0.0 0.0 0.00 0.00 0.00 62 1014.9
20260904191635 21 0.0 0.0 0.00 0.00 0.00 60 1014.7
20260904190137 21 0.0 0.0 0.00 0.00 0.00 60 1014.6